Location: Schommer Observatory
(40.5200°N, 74.4500°W)
Time: 11:52:34
(UTC-04:00)

Envisat - Pass Details

Date: 11 October 2017
Orbit: 764 x 766 km, 98.2° (Epoch: 21 October)

Event Time Altitude Azimuth Distance (km) Brightness Sun altitude
Exits shadow 20:30:43 57° 39° (NE) 904 3.1 -24.9°
Drops below altitude 10° 20:35:06 10° 354° (N) 2,310 5.7 -25.7°
Sets 20:37:26 0° 351° (N) 3,240 6.5 -26.1°
